Falfurrias, TX

11:36 AM CST on December 12, 2019 (GMT -0600)
Falfurrias

Weather History for KBKS - October, 2019

Change the Weather History Date:

Saturday, October 19, 2019

  Actual Average (WUND) Record (WUND)
Temperature  
Mean Temperature 84 °F -  
Max Temperature 95 °F - - (-1)
Min Temperature 72 °F - - (-1)
Cooling Degree Days 18    
Growing Degree Days 34 (Base 50)    
Moisture  
Dew Point 72 °F    
Average Humidity 75    
Maximum Humidity 92    
Minimum Humidity 43    
Precipitation  
Precipitation 0.00 in - - ()
Sea Level Pressure  
Sea Level Pressure 29.73 in    
Wind  
Wind Speed 5 mph ()    
Max Wind Speed 12 mph    
Max Gust Speed 17 mph    
Visibility 9.2 miles    
Events      
Averages and records for this station are not official NWS values.
T = Trace of Precipitation, MM = Missing Value Source: Averaged Metar Reports

Daily Weather History Graph

Daily Weather History Graph

Search for Another Location

Airport or City:

Astronomy

Oct. 19, 2019 Rise Set
Actual Time 7:34 AM CDT 7:00 PM CDT
Civil Twilight 7:10 AM CDT 7:23 PM CDT
Nautical Twilight 6:43 AM CDT 7:50 PM CDT
Astronomical Twilight 6:16 AM CDT 8:17 PM CDT
Moon 11:31 PM CDT (10/19) 12:46 PM CDT (10/19)
Length of Visible Light 12h 12m
Length of Day
11h 25m
Waning Gibbous, 69% of the Moon is Illuminated
Oct 19
Waning Gibbous
Oct 21
Last Quarter
Oct 27
New
Nov 4
First Quarter
Nov 12
Full

Hourly Weather History & Observations

Time (CDT) Temp. Heat Index Dew Point Humidity Pressure Visibility Wind Dir Wind Speed Gust Speed Precip Events Conditions
12:15 AM 74.3 °F - 70.7 °F 88% 29.75 in 10.0 mi Calm Calm - N/A   Clear
12:35 AM 73.6 °F - 70.2 °F 89% 29.75 in 10.0 mi SE 3.5 mph - N/A   Clear
12:55 AM 73.6 °F - 70.3 °F 90% 29.75 in 10.0 mi Calm Calm - N/A   Clear
1:15 AM 73.4 °F - 70.0 °F 89% 29.74 in 10.0 mi ESE 3.5 mph - N/A   Scattered Clouds
1:35 AM 73.4 °F - 70.7 °F 91% 29.73 in 10.0 mi SE 3.5 mph - N/A   Scattered Clouds
1:55 AM 74.7 °F - 71.6 °F 90% 29.73 in 10.0 mi SE 5.8 mph - N/A   Scattered Clouds
2:15 AM 74.8 °F - 71.6 °F 90% 29.73 in 10.0 mi SE 3.5 mph - N/A   Clear
2:35 AM 74.5 °F - 71.2 °F 90% 29.72 in 10.0 mi SE 4.6 mph - N/A   Clear
2:55 AM 74.3 °F - 71.6 °F 91% 29.72 in 10.0 mi SE 4.6 mph - N/A   Clear
3:15 AM 74.7 °F - 71.6 °F 90% 29.72 in 10.0 mi SE 5.8 mph - N/A   Clear
3:35 AM 74.7 °F - 71.8 °F 91% 29.71 in 10.0 mi SE 6.9 mph - N/A   Clear
3:55 AM 74.8 °F - 72.0 °F 91% 29.71 in 10.0 mi SE 6.9 mph - N/A   Clear
4:15 AM 75.2 °F - 72.0 °F 90% 29.70 in 10.0 mi SE 6.9 mph - N/A   Clear
4:35 AM 74.8 °F - 71.8 °F 90% 29.70 in 10.0 mi SSE 5.8 mph - N/A   Clear
4:55 AM 74.5 °F - 71.6 °F 91% 29.70 in 10.0 mi SSE 6.9 mph - N/A   Clear
5:15 AM 74.3 °F - 71.6 °F 91% 29.70 in 10.0 mi SSE 6.9 mph - N/A   Clear
5:35 AM 74.3 °F - 71.4 °F 91% 29.70 in 7.0 mi SSE 6.9 mph - N/A   Clear
5:55 AM 74.3 °F - 71.6 °F 91% 29.70 in 7.0 mi SSE 4.6 mph - N/A   Clear
6:15 AM 74.5 °F - 71.8 °F 91% 29.71 in 7.0 mi SE 4.6 mph - N/A   Clear
6:35 AM 74.3 °F - 71.6 °F 91% 29.71 in 7.0 mi SE 3.5 mph - N/A   Clear
6:55 AM 73.9 °F - 71.6 °F 92% 29.72 in 7.0 mi Calm Calm - N/A   Clear
7:15 AM 73.4 °F - 70.9 °F 92% 29.72 in 4.0 mi Calm Calm - N/A   Clear
7:35 AM 73.4 °F - 70.9 °F 92% 29.73 in 1.5 mi Calm Calm - N/A   Mostly Cloudy
7:55 AM 72.9 °F - 70.3 °F 92% 29.73 in 4.0 mi SE 3.5 mph - N/A   Overcast
8:15 AM 74.1 °F - 71.8 °F 92% 29.74 in 7.0 mi Calm Calm - N/A   Overcast
8:35 AM 74.8 °F - 72.5 °F 92% 29.75 in 7.0 mi Calm Calm - N/A   Overcast
8:55 AM 75.6 °F - 72.9 °F 91% 29.75 in 7.0 mi Calm Calm - N/A   Overcast
9:15 AM 76.3 °F - 73.8 °F 92% 29.77 in 4.0 mi SW 4.6 mph - N/A   Overcast
9:35 AM 77.0 °F - 74.1 °F 91% 29.77 in 5.0 mi SW 3.5 mph - N/A   Overcast
9:55 AM 78.4 °F - 74.8 °F 89% 29.77 in 10.0 mi SSW 6.9 mph - N/A   Overcast
10:15 AM 79.3 °F - 74.3 °F 84% 29.78 in 10.0 mi SW 3.5 mph - N/A   Overcast
10:35 AM 80.8 °F 85.9 °F 73.9 °F 80% 29.78 in 10.0 mi South 5.8 mph - N/A   Mostly Cloudy
10:55 AM 83.1 °F 89.2 °F 73.4 °F 72% 29.79 in 10.0 mi SSE 9.2 mph - N/A   Mostly Cloudy
11:15 AM 82.9 °F 88.5 °F 72.9 °F 71% 29.80 in 10.0 mi SW 3.5 mph - N/A   Overcast
11:35 AM 84.7 °F 91.0 °F 72.9 °F 67% 29.80 in 10.0 mi South 4.6 mph - N/A   Overcast
11:55 AM 86.7 °F 93.7 °F 72.7 °F 63% 29.79 in 10.0 mi SSE 8.1 mph - N/A   Scattered Clouds
12:15 PM 87.6 °F 94.3 °F 72.0 °F 60% 29.78 in 10.0 mi SE 6.9 mph - N/A   Scattered Clouds
12:35 PM 87.8 °F 94.7 °F 72.1 °F 60% 29.78 in 10.0 mi South 3.5 mph - N/A   Mostly Cloudy
12:55 PM 87.6 °F 94.3 °F 72.0 °F 60% 29.77 in 10.0 mi SE 4.6 mph - N/A   Mostly Cloudy
1:15 PM 90.3 °F 96.7 °F 71.2 °F 53% 29.75 in 10.0 mi ESE 5.8 mph - N/A   Mostly Cloudy
1:35 PM 91.9 °F 98.4 °F 70.9 °F 50% 29.74 in 10.0 mi SSE 6.9 mph - N/A   Scattered Clouds
1:55 PM 92.1 °F 98.3 °F 70.3 °F 49% 29.73 in 10.0 mi SE 6.9 mph - N/A   Clear
2:15 PM 93.2 °F 99.9 °F 70.7 °F 48% 29.72 in 10.0 mi SE 5.8 mph - N/A   Clear
2:35 PM 92.8 °F 99.2 °F 70.3 °F 48% 29.71 in 10.0 mi South 11.5 mph - N/A   Mostly Cloudy
2:55 PM 93.9 °F 100.3 °F 70.5 °F 46% 29.70 in 10.0 mi ESE 9.2 mph - N/A   Scattered Clouds
3:15 PM 94.5 °F 100.8 °F 70.0 °F 45% 29.70 in 10.0 mi SE 5.8 mph - N/A   Scattered Clouds
3:35 PM 95.9 °F 102.5 °F 70.3 °F 43% 29.70 in 10.0 mi ESE 6.9 mph 16.1 mph N/A   Mostly Cloudy
3:55 PM 93.7 °F 99.3 °F 69.3 °F 45% 29.70 in 10.0 mi ESE 5.8 mph - N/A   Scattered Clouds
4:15 PM 94.1 °F 98.9 °F 68.7 °F 43% 29.69 in 10.0 mi SSE 3.5 mph - N/A   Clear
4:35 PM 94.1 °F 100.0 °F 69.8 °F 45% 29.69 in 10.0 mi ESE 9.2 mph - N/A   Clear
4:55 PM 95.4 °F 101.4 °F 69.6 °F 43% 29.69 in 10.0 mi ESE 9.2 mph - N/A   Scattered Clouds
5:15 PM 94.3 °F 99.8 °F 69.4 °F 44% 29.69 in 10.0 mi SE 8.1 mph - N/A   Mostly Cloudy
5:35 PM 94.1 °F 100.0 °F 69.6 °F 45% 29.69 in 10.0 mi ESE 8.1 mph - N/A   Mostly Cloudy
6:15 PM 89.8 °F 99.2 °F 74.3 °F 60% 29.70 in 10.0 mi ESE 10.4 mph - N/A   Scattered Clouds
6:35 PM 89.1 °F 98.5 °F 74.3 °F 62% 29.70 in 10.0 mi ESE 10.4 mph - N/A   Clear
6:55 PM 87.8 °F 96.6 °F 74.5 °F 64% 29.70 in 10.0 mi ESE 10.4 mph 16.1 mph N/A   Clear
7:15 PM 86.9 °F 95.4 °F 74.3 °F 66% 29.71 in 10.0 mi ESE 10.4 mph - N/A   Clear
7:35 PM 86.0 °F 94.2 °F 74.5 °F 68% 29.71 in 10.0 mi ESE 10.4 mph - N/A   Clear
7:55 PM 85.1 °F 93.3 °F 74.7 °F 71% 29.72 in 10.0 mi ESE 9.2 mph - N/A   Clear
8:15 PM 84.4 °F 92.0 °F 74.3 °F 72% 29.73 in 10.0 mi ESE 10.4 mph - N/A   Clear
8:35 PM 83.7 °F 90.4 °F 73.9 °F 72% 29.74 in 10.0 mi East 10.4 mph - N/A   Clear
8:55 PM 83.3 °F 89.9 °F 73.8 °F 73% 29.74 in 10.0 mi ESE 9.2 mph - N/A   Clear
9:15 PM 82.9 °F 89.4 °F 73.8 °F 74% 29.75 in 10.0 mi SE 11.5 mph 17.3 mph N/A   Clear
9:35 PM 82.6 °F 88.8 °F 73.9 °F 75% 29.75 in 10.0 mi SE 11.5 mph - N/A   Clear
9:55 PM 82.4 °F 88.7 °F 74.1 °F 76% 29.76 in 10.0 mi SE 9.2 mph - N/A   Clear
10:15 PM 81.9 °F 88.0 °F 74.3 °F 78% 29.77 in 10.0 mi SE 9.2 mph - N/A   Clear
10:35 PM 81.5 °F 87.2 °F 74.1 °F 78% 29.78 in 10.0 mi SE 6.9 mph - N/A   Clear
10:55 PM 80.6 °F 85.5 °F 73.9 °F 80% 29.78 in 10.0 mi SE 5.8 mph - N/A   Clear
11:15 PM 80.1 °F 84.6 °F 74.1 °F 82% 29.78 in 10.0 mi SE 5.8 mph - N/A   Clear
11:35 PM 79.7 °F - 73.9 °F 82% 29.78 in 10.0 mi SSE 4.6 mph - N/A   Clear
11:55 PM 79.2 °F - 73.8 °F 83% 29.78 in 10.0 mi SSE 5.8 mph - N/A   Clear